This is the latest recevied weather packets stored in our database for station/object KM5VY. If no packets are shown the sender has not sent any weather packets the latest 1 day(s).
| Time | Temp. | Humidity | Pressure | Rain* | Wind** | Luminosity | Snow |
|---|---|---|---|---|---|---|---|
| 1778035204 | 8.89° C | 59% | 1012.5 hPa | 0 mm | 0 m/s | - | - |
| 1778034602 | 9.44° C | 59% | 1012.2 hPa | 0 mm | 0 m/s | - | - |
| 1778034001 | 9.44° C | 59% | 1011.9 hPa | 0 mm | 0 m/s | - | - |
| 1778033536 | 9.44° C | 58% | 1011.9 hPa | 0 mm | 0 m/s | - | - |
| 1778033400 | 9.44° C | 58% | 1011.9 hPa | 0 mm | 0 m/s | - | - |
| 1778032307 | 10° C | 56% | 1011.9 hPa | 0 mm | 0 m/s | - | - |
| 1778031706 | 10.56° C | 54% | 1011.9 hPa | 0 mm | 0 m/s | - | - |
| 1778030504 | 11.11° C | 52% | 1011.2 hPa | 0 mm | 0 m/s | - | - |
| 1778029903 | 11.11° C | 51% | 1011.5 hPa | 0 mm | 0 m/s | - | - |
| 1778029302 | 11.11° C | 51% | 1011.5 hPa | 0 mm | 1.79 m/s, 270° | - | - |
| 1778028701 | 11.67° C | 50% | 1011.2 hPa | 0 mm | 1.34 m/s, 270° | - | - |
| 1778028100 | 11.67° C | 50% | 1011.2 hPa | 0 mm | 2.24 m/s, 270° | - | - |
| 1778026898 | 12.22° C | 50% | 1010.8 hPa | 0 mm | 0.45 m/s, 293° | - | - |
| 1778026297 | 12.22° C | 50% | 1011.2 hPa | 0 mm | 0 m/s | - | - |
| 1778025696 | 12.78° C | 50% | 1011.2 hPa | 0 mm | 2.24 m/s, 248° | - | - |
| 1778025095 | 12.78° C | 50% | 1011.2 hPa | 0 mm | 1.34 m/s, 338° | - | - |
| 1778024494 | 12.78° C | 50% | 1011.2 hPa | 0 mm | 1.79 m/s, 270° | - | - |
| 1778023893 | 13.33° C | 50% | 1011.2 hPa | 0 mm | 1.79 m/s, 270° | - | - |
| 1778023292 | 13.33° C | 51% | 1011.2 hPa | 0 mm | 1.34 m/s, 270° | - | - |
| 1778022692 | 13.33° C | 53% | 1011.2 hPa | 0 mm | 2.24 m/s, 293° | - | - |
| 1778022090 | 12.78° C | 54% | 1010.8 hPa | 0 mm | 0.89 m/s, 270° | - | - |
| 1778021489 | 13.33° C | 54% | 1011.5 hPa | 0 mm | 1.79 m/s, 270° | - | - |
| 1778020889 | 13.33° C | 55% | 1011.5 hPa | 0 mm | 3.13 m/s, 248° | - | - |
| 1778020287 | 13.33° C | 56% | 1011.5 hPa | 0 mm | 1.79 m/s, 270° | - | - |
| 1778019686 | 13.33° C | 55% | 1011.5 hPa | 0 mm | 0 m/s | - | - |
* Rain latest hour (hover to see other rain measurements)
** Current wind speed in m/s (hover to see current wind gust speed)